Address 0xc965e082b0082449047501032f0e9e7f3dc5cc12

 
Txn Hash
Block
From
To
Value [Txn Fee]
0x10fe5867f6609e13691dae75e66bd6d0055663fb17924c6af4d6574662b7d7e45143492020-09-16 0:07:07236 days 8 hrs ago0xc965e082b0082449047501032f0e9e7f3dc5cc12OUT 0xf6f18f710cc85ecd8cb42912a3a7028a24f306ea0 BNB0.00043544
0xf0087329935d3db753e475112eb963f28ed019537aeea7459bbbe9276101d3785142912020-09-16 0:04:13236 days 8 hrs ago0xc965e082b0082449047501032f0e9e7f3dc5cc12OUT 0xcde540d7eafe93ac5fe6233bee57e1270d3e330f0 BNB0.00224194
0x88e08612620eb3b24a205c4ab6043adaeb5d4a734e996049455c4057a80d25bb5142762020-09-16 0:03:28236 days 8 hrs ago0x3448616bc4a15b84ab57afede4f6e1c37418ee4c IN 0xc965e082b0082449047501032f0e9e7f3dc5cc120.00448416 BNB0.001869
0x79ca05bae8b25c67a788f65308394206e89b0d549cc6efa30aab9ad58bbfdd095142552020-09-16 0:02:25236 days 8 hrs ago0xc965e082b0082449047501032f0e9e7f3dc5cc12OUT 0xcde540d7eafe93ac5fe6233bee57e1270d3e330f0 BNB0.00233406
0x6955cb7ce2741899ddb59a74181f6fd69fe0e5469feb7a63ddb56e235d3768d65142222020-09-16 0:00:46236 days 8 hrs ago0xc965e082b0082449047501032f0e9e7f3dc5cc12OUT BakerySwap: BAKE Token0 BNB0.00058764
0xfcc7c55a9a3d7f358c703c91531f856d61be05a182328ff22a85b5d66a99931e5098712020-09-15 20:23:13236 days 12 hrs ago0xc965e082b0082449047501032f0e9e7f3dc5cc12OUT 0xb18713ac02fc2090c0447e539524a5c76f327a3b0 BNB0.0005644
0xfca1ec5545106f5e1823b1cab05ee3533b04ae1b694948c31f58cd45b97eae705098252020-09-15 20:20:55236 days 12 hrs ago0xc965e082b0082449047501032f0e9e7f3dc5cc12OUT 0xcde540d7eafe93ac5fe6233bee57e1270d3e330f0 BNB0.00218392
0xa0716bcc733a25ea90ad9704bb0cde6b7a7d196d4b98d8699ccb61950495af1b5098112020-09-15 20:20:13236 days 12 hrs ago0xc965e082b0082449047501032f0e9e7f3dc5cc12OUT Binance: BUSD Stablecoin0 BNB0.00088188
0xb4c24e509a8d604b542fabe29f96716ac61d089b94e8d1760bc2c5787102e5ab4942492020-09-15 7:22:07237 days 1 hr ago0xc965e082b0082449047501032f0e9e7f3dc5cc12OUT 0xcde540d7eafe93ac5fe6233bee57e1270d3e330f0 BNB0.00310156
0x4018e9c7f6265af59374864ad9f8bed94ddcd410b1da08d804648ef0d838ef904941452020-09-15 7:16:55237 days 1 hr ago0xc965e082b0082449047501032f0e9e7f3dc5cc12OUT BakerySwap: BAKE Token0 BNB0.00088164
0x71c2b4f8fd68f07b2707e2ecb1310859a1ea7d300efe124e1e785d3873e4225d4938162020-09-15 7:00:28237 days 1 hr ago0xc965e082b0082449047501032f0e9e7f3dc5cc12OUT 0xb18713ac02fc2090c0447e539524a5c76f327a3b0 BNB0.0005644
0x6f6345edfb98b822b67ee15b2d6d8456ae07ab770b6bfa95b3ce551b76aaeff04937562020-09-15 6:57:28237 days 1 hr ago0xc965e082b0082449047501032f0e9e7f3dc5cc12OUT 0xb18713ac02fc2090c0447e539524a5c76f327a3b0 BNB0.0005644
0x9dda691fa04a2abb2dd4bf89cbc204a6a0810b1880e44ff0e49784e73aa2190f4937482020-09-15 6:57:04237 days 1 hr ago0xc965e082b0082449047501032f0e9e7f3dc5cc12OUT 0xb18713ac02fc2090c0447e539524a5c76f327a3b0 BNB0.0005644
0x916cd0e7e99f57e04bce2ee0bf744c4b381749ffea4dd0d95e97ffad42be3d394931462020-09-15 6:26:58237 days 2 hrs ago0xc965e082b0082449047501032f0e9e7f3dc5cc12OUT 0xb18713ac02fc2090c0447e539524a5c76f327a3b0 BNB0.00222678
0xe1ad58eb3f4f52d869c9a3c16f26e2c402f43dc0a09c89d8d2612a026018cbdf4931442020-09-15 6:26:52237 days 2 hrs ago0xc965e082b0082449047501032f0e9e7f3dc5cc12OUT BakerySwap: BAKE Token0 BNB0.00088188
0x1e7e9343040cf4f1f18991f4b93a5e86d5f1cfcd5037098a435f0e29cbcc624c4930682020-09-15 6:23:04237 days 2 hrs ago0xc965e082b0082449047501032f0e9e7f3dc5cc12OUT 0xcde540d7eafe93ac5fe6233bee57e1270d3e330f0 BNB0.00218392
0x22482d2d57146d15e9536abe60422013b112a8459ab19f581dc65f66077b20d74930482020-09-15 6:22:04237 days 2 hrs ago0xc965e082b0082449047501032f0e9e7f3dc5cc12OUT Binance: BUSD Stablecoin0 BNB0.00088188
0xfb86f1e60834ec4fc53586e5b001902a1ef54593efee917e82f2af88fe64c7044312672020-09-13 2:53:01239 days 5 hrs ago0xc965e082b0082449047501032f0e9e7f3dc5cc12OUT 0xb18713ac02fc2090c0447e539524a5c76f327a3b0 BNB0.00222678
0x62d05f2970bce65dc7a0e14dc0b852d0132073c16c445089fc5decfadae832704312642020-09-13 2:52:52239 days 5 hrs ago0xc965e082b0082449047501032f0e9e7f3dc5cc12OUT BUSD-T Stablecoin0 BNB0.00058308
0xacd55518e5080f7eba0f21f32a00a044a94aa05ad8379e85d50e8db6f44a5cd34284202020-09-13 0:30:40239 days 8 hrs ago0xc965e082b0082449047501032f0e9e7f3dc5cc12OUT 0x8942faceaa4047ee94d152b6910762a631597e160 BNB0.00087972
0x2b72c4ffad287f09c6d97b12756e94f19d51e81342025f3c01b20c674212271a4282922020-09-13 0:24:16239 days 8 hrs ago0xc965e082b0082449047501032f0e9e7f3dc5cc12OUT BUSD-T Stablecoin0 BNB0.00088188
0xa1f02822ceb6bcbbf670766ff141ba72ee058fdfdbf021a4206bc67c7df073644156332020-09-12 13:51:19239 days 18 hrs ago0xc965e082b0082449047501032f0e9e7f3dc5cc12OUT 0xb18713ac02fc2090c0447e539524a5c76f327a3b0 BNB0.0018231
0x15f20ab016298bed8eb42a4fca94d9eaddaae2de62c3b13058ad3b6b12f19df04156302020-09-12 13:51:10239 days 18 hrs ago0xc965e082b0082449047501032f0e9e7f3dc5cc12OUT 0x8942faceaa4047ee94d152b6910762a631597e160 BNB0.00087996
0x77c8af0fe0183b0bb8832449a9dcc076697b77d94567ee3ed6ce359d4a8991184155822020-09-12 13:48:46239 days 18 hrs ago0xc965e082b0082449047501032f0e9e7f3dc5cc12OUT 0xb18713ac02fc2090c0447e539524a5c76f327a3b0 BNB0.00045586
0xde2d8ac7756edfcb7609c8b71c1b733d29498cb06e6674263874cac7cbd46b3a4153062020-09-12 13:34:58239 days 19 hrs ago0xc965e082b0082449047501032f0e9e7f3dc5cc12OUT0x3448616bc4a15b84ab57afede4f6e1c37418ee4c0.01 BNB0.00042
[ Download CSV Export 
Latest 3 internal transactions
Parent Txn Hash Block From To Value
0x10fe5867f6609e13691dae75e66bd6d0055663fb17924c6af4d6574662b7d7e45143492020-09-16 0:07:07236 days 8 hrs ago 0xf6f18f710cc85ecd8cb42912a3a7028a24f306ea0xc965e082b0082449047501032f0e9e7f3dc5cc120.0123 BNB
0xf0087329935d3db753e475112eb963f28ed019537aeea7459bbbe9276101d3785142912020-09-16 0:04:13236 days 8 hrs ago 0xcde540d7eafe93ac5fe6233bee57e1270d3e330f0xc965e082b0082449047501032f0e9e7f3dc5cc120.051911870921823542 BNB
0xd8e53567b0b944dc0689335c2f6f4e3e5d30672ea21ddbe2de6438e4023ecf603717882020-09-11 1:19:04241 days 7 hrs ago 0xb18713ac02fc2090c0447e539524a5c76f327a3b0xc965e082b0082449047501032f0e9e7f3dc5cc120.01 BNB
[ Download CSV Export 
Loading

Contract Name:
0 BNB

Compiler Version
0

Optimization Enabled:
0 BNB

Other Settings:
-NA-
Block Transaction Gas Used Reward
Age Block Fee Address BC Fee Address Voting Power Jailed Incoming
Block Uncle Number Difficulty Gas Used Reward
Loading
Loading
Make sure to use the "Vote Down" button for any spammy posts, and the "Vote Up" for interesting conversations.